This is the latest recevied weather packets stored in our database for station/object K0FJ-1. If no packets are shown the sender has not sent any weather packets the latest 10 day(s).
| Time | Temp. | Humidity | Pressure | Rain* | Wind** | Luminosity | Snow |
|---|---|---|---|---|---|---|---|
| 1788071703 | 23.33° C | 67% | 1013.9 hPa | 0 mm | - | - | - |
| 1788071403 | 23.33° C | 67% | 1014 hPa | 0 mm | - | - | - |
| 1788071103 | 23.33° C | 66% | 1014 hPa | 0 mm | - | - | - |
| 1788070803 | 23.89° C | 65% | 1014.1 hPa | 0 mm | - | - | - |
| 1788070503 | 23.89° C | 65% | 1014 hPa | 0 mm | - | - | - |
| 1788070203 | 23.89° C | 64% | 1014 hPa | 0 mm | - | - | - |
| 1788069903 | 24.44° C | 62% | 1013.9 hPa | 0 mm | - | - | - |
| 1788069603 | 24.44° C | 61% | 1014.1 hPa | 0 mm | - | - | - |
| 1788069303 | 25° C | 60% | 1013.9 hPa | 0 mm | - | - | - |
| 1788069003 | 25° C | 59% | 1014 hPa | 0 mm | - | - | - |
| 1788068703 | 25.56° C | 57% | 1013.9 hPa | 0 mm | - | - | - |
| 1788068403 | 26.67° C | 55% | 1013.7 hPa | 0 mm | - | - | - |
| 1788068103 | 26.67° C | 55% | 1013.9 hPa | 0 mm | - | - | - |
| 1788067803 | 26.67° C | 54% | 1013.7 hPa | 0 mm | - | - | - |
| 1788067503 | 26.67° C | 54% | 1013.5 hPa | 0 mm | - | - | - |
| 1788067203 | 26.67° C | 54% | 1013.6 hPa | 0 mm | - | - | - |
| 1788066903 | 26.67° C | 55% | 1013.7 hPa | 0 mm | - | - | - |
| 1788066603 | 27.22° C | 54% | 1012.3 hPa | 0 mm | - | - | - |
| 1788066303 | 27.22° C | 54% | 1012.2 hPa | 0 mm | - | - | - |
| 1788066004 | 27.22° C | 53% | 1012.1 hPa | 0 mm | - | - | - |
| 1788065703 | 27.78° C | 53% | 1012 hPa | 0 mm | - | - | - |
| 1788065403 | 27.78° C | 52% | 1011.6 hPa | 0 mm | - | - | - |
| 1788065103 | 27.78° C | 51% | 1011.7 hPa | 0 mm | - | - | - |
| 1788064803 | 27.78° C | 51% | 1011.8 hPa | 0 mm | - | - | - |
| 1788064503 | 27.78° C | 51% | 1011.9 hPa | 0 mm | - | - | - |
* Rain latest hour (hover to see other rain measurements)
** Current wind speed in m/s (hover to see current wind gust speed)